Simultaneous Nadir Overpasses (SNOs) Predictions

Prediction of SNOs between METOP-A and NOAA-19 Satellite Orbit:

Table of predicted SNOs for the next 14.0 days since TLE Epoch: 11/21/2014
Index Date (METOP-A) Time (METOP-A) Lat,Lon (METOP-A) SZA (METOP-A ) Date (NOAA-19) Time (NOAA-19) Lat,Lon (NOAA-19) SZA (NOAA-19 ) Distance(km) Time Diff (sec)
1 11/30/2014 10:29:42 -74.44,-161.60 83.99 11/30/2014 10:28:26 -74.46,-161.57 83.96 2.79 76
2 11/30/2014 11:20:21 74.46, 5.78 96.04 11/30/2014 11:19:23 74.44, 5.75 96.03 2.14 58
3 11/30/2014 12:11:04 -74.42, 173.01 84.00 11/30/2014 12:10:28 -74.40, 173.08 84.01 2.73 36
4 11/30/2014 13:01:44 74.39, -19.73 95.99 11/30/2014 13:01:25 74.39, -19.61 95.98 3.79 19
5 11/30/2014 13:52:26 -74.40, 147.62 84.00 11/30/2014 13:52:31 -74.39, 147.59 84.01 0.96 5
6
